Location: Bli��� Lhota
(48.7570°N, 14.0120°E)
Time: 05:37:10
(UTC+00:00)

Exosat Rocket - Pass Details

Date: 18 September 2020
Orbit: 761 x 2514 km, 72.3° (Epoch: 22 October)

Event Time Altitude Azimuth Distance (km) Brightness Sun altitude
Rises 18:58:38 0° 186° (S) 3,705 6.9 -18.2°
Reaches altitude 10° 19:01:27 10° 181° (S) 2,588 6.0 -18.6°
Maximum altitude 19:06:48 46° 109° (ESE) 1,060 3.8 -19.4°
Drops below altitude 10° 19:11:34 10° 37° (NE) 2,304 5.9 -20.1°
Sets 19:13:56 0° 31° (NNE) 3,254 6.7 -20.5°
